Retour au catalogue

COMPASS G2

ActifNavigationMEO
NORAD 34779·PAYLOAD·🇨🇳 China

Lancé Apr 14, 2009 depuis Xichang Satellite Launch Center

Loading…

Prochains Passages (prochaines 24 heures)

TLE

FraisSource: Space-Track

Époque: Sep 14, 2026, 12:05 UTC

1 34779U 09018A   26257.50380830 -.00000161  00000-0  00000-0 0  9996
2 34779  11.6242  41.5012 0304809 287.3908  79.5447  0.94517318 63005

Suivez COMPASS G2 en temps réel avec AllMySat

Download on the App Store